Language: 


Des rapports , des résumés tant et plus, au choix de chacun....


Données statistiques de la station
Quotidien Rapport Juin 30, 2017 Unités:  Métrique    Anglais   les deux
« Précédent Jour
Suivant Jour »
Quotidien Hebdomadaire Mensuel Annuel Actuel
  Haut: Bas: Moyen:
Température: 23.5 °C 12.7 °C 17.7 °C
Pt de rosée: 16.0 °C 12.0 °C 13.5 °C
Humidité: 97 % 50 % 77 %
Vitesse du vent: 14.3 km/h 0.0 km/h 3.2 km/h
Rafales: 18.0 km/h - -
Vent:- - West
Pression: 1008.0 hPa 999.9 hPa -
Précipitation: 0.0 mm    
Historical Graphs
 
 
Données statistiques pour Juin 30, 2017
Heure Température Point de rosée Pression Vent Vitesse du vent Refales Humidité Pluie (taux horaire)
00:01 15.8 °C 13.0 °C 999.9 hPa Calm     84 % 0.0 mm
00:06 15.8 °C 13.0 °C 999.9 hPa Calm   1.4 km/h 84 % 0.0 mm
00:11 15.8 °C 13.0 °C 999.9 hPa Calm   2.1 km/h 85 % 0.0 mm
00:16 15.8 °C 13.0 °C 999.9 hPa Calm   2.1 km/h 85 % 0.0 mm
00:21 15.8 °C 13.0 °C 999.9 hPa Calm     86 % 0.0 mm
00:26 15.9 °C 14.0 °C 999.9 hPa Calm   3.2 km/h 87 % 0.0 mm
00:31 15.9 °C 14.0 °C 999.9 hPa Calm   3.2 km/h 87 % 0.0 mm
00:36 15.9 °C 14.0 °C 999.9 hPa Calm   3.2 km/h 87 % 0.0 mm
00:42 15.8 °C 14.0 °C 999.9 hPa Calm   3.2 km/h 87 % 0.0 mm
00:47 15.7 °C 14.0 °C 999.9 hPa Calm   6.1 km/h 87 % 0.0 mm
00:52 15.5 °C 14.0 °C 999.9 hPa Calm   6.1 km/h 88 % 0.0 mm
00:57 15.3 °C 13.0 °C 999.9 hPa Calm   3.2 km/h 87 % 0.0 mm
01:02 15.1 °C 13.0 °C 999.9 hPa Calm     88 % 0.0 mm
01:07 14.9 °C 13.0 °C 999.9 hPa Calm     88 % 0.0 mm
01:12 14.7 °C 13.0 °C 999.9 hPa Calm     88 % 0.0 mm
01:17 14.5 °C 13.0 °C 999.9 hPa Calm     89 % 0.0 mm
01:22 14.3 °C 13.0 °C 999.9 hPa Calm     89 % 0.0 mm
01:27 14.1 °C 13.0 °C 999.9 hPa Calm     89 % 0.0 mm
01:32 13.9 °C 13.0 °C 999.9 hPa Calm   1.4 km/h 90 % 0.0 mm
01:37 13.8 °C 12.0 °C 999.9 hPa Calm   1.4 km/h 90 % 0.0 mm
01:42 13.6 °C 12.0 °C 999.9 hPa Calm   3.2 km/h 90 % 0.0 mm
01:47 13.6 °C 13.0 °C 999.9 hPa Calm   3.2 km/h 91 % 0.0 mm
01:52 13.5 °C 13.0 °C 999.9 hPa SE 1.8 km/h 1.8 km/h 91 % 0.0 mm
01:57 13.5 °C 13.0 °C 999.9 hPa Calm   3.2 km/h 92 % 0.0 mm
02:02 13.5 °C 13.0 °C 999.9 hPa Calm   3.2 km/h 92 % 0.0 mm
02:07 13.5 °C 13.0 °C 999.9 hPa Calm   1.4 km/h 92 % 0.0 mm
02:12 13.5 °C 13.0 °C 999.9 hPa Calm   1.4 km/h 93 % 0.0 mm
02:17 13.5 °C 13.0 °C 999.9 hPa Calm     93 % 0.0 mm
02:22 13.5 °C 13.0 °C 999.9 hPa Calm   4.0 km/h 93 % 0.0 mm
02:27 13.5 °C 13.0 °C 999.9 hPa SSW 1.4 km/h 5.0 km/h 93 % 0.0 mm
02:32 13.5 °C 13.0 °C 999.9 hPa Calm   5.0 km/h 94 % 0.0 mm
02:38 13.5 °C 13.0 °C 999.9 hPa Calm     94 % 0.0 mm
02:42 13.4 °C 13.0 °C 999.9 hPa Calm     94 % 0.0 mm
02:48 13.4 °C 13.0 °C 999.9 hPa Calm     94 % 0.0 mm
02:53 13.3 °C 13.0 °C 999.9 hPa Calm     94 % 0.0 mm
02:58 13.3 °C 13.0 °C 999.9 hPa Calm     94 % 0.0 mm
03:03 13.3 °C 13.0 °C 999.9 hPa Calm   2.6 km/h 94 % 0.0 mm
03:08 13.1 °C 12.0 °C 999.9 hPa Calm   2.6 km/h 94 % 0.0 mm
03:13 12.9 °C 12.0 °C 999.9 hPa West 1.8 km/h 1.8 km/h 94 % 0.0 mm
03:18 12.7 °C 12.0 °C 999.9 hPa Calm   3.2 km/h 94 % 0.0 mm
03:23 12.7 °C 12.0 °C 999.9 hPa Calm   3.2 km/h 94 % 0.0 mm
03:28 12.8 °C 12.0 °C 999.9 hPa South 1.4 km/h 3.5 km/h 94 % 0.0 mm
03:33 12.9 °C 13.0 °C 999.9 hPa Calm   3.5 km/h 95 % 0.0 mm
03:38 12.9 °C 13.0 °C 999.9 hPa Calm   5.5 km/h 95 % 0.0 mm
03:43 13.0 °C 13.0 °C 999.9 hPa Calm   5.5 km/h 95 % 0.0 mm
03:48 13.1 °C 13.0 °C 999.9 hPa Calm   1.8 km/h 95 % 0.0 mm
03:53 13.2 °C 13.0 °C 999.9 hPa SSE 2.1 km/h 5.0 km/h 95 % 0.0 mm
03:58 13.3 °C 13.0 °C 999.9 hPa Calm   5.0 km/h 95 % 0.0 mm
04:03 13.4 °C 13.0 °C 999.9 hPa Calm   5.0 km/h 95 % 0.0 mm
04:08 13.6 °C 13.0 °C 999.9 hPa South 1.4 km/h 5.0 km/h 96 % 0.0 mm
04:13 13.6 °C 13.0 °C 999.9 hPa South 2.6 km/h 2.6 km/h 96 % 0.0 mm
04:18 13.7 °C 13.0 °C 999.9 hPa Calm   3.5 km/h 96 % 0.0 mm
04:23 13.8 °C 13.0 °C 999.9 hPa Calm   4.3 km/h 96 % 0.0 mm
04:28 13.8 °C 13.0 °C 999.9 hPa Calm   4.3 km/h 96 % 0.0 mm
04:33 13.9 °C 14.0 °C 1000.9 hPa Calm   2.1 km/h 96 % 0.0 mm
04:38 13.9 °C 14.0 °C 1000.9 hPa Calm   2.6 km/h 96 % 0.0 mm
04:43 14.0 °C 14.0 °C 1000.9 hPa Calm   4.3 km/h 96 % 0.0 mm
04:48 14.0 °C 14.0 °C 1000.9 hPa Calm   4.3 km/h 96 % 0.0 mm
04:53 14.0 °C 14.0 °C 1000.9 hPa Calm     96 % 0.0 mm
04:58 14.0 °C 13.0 °C 1000.9 hPa Calm     95 % 0.0 mm
05:00 14.0 °C 13.0 °C 1000.9 hPa Calm     95 % 0.0 mm
05:05 14.0 °C 13.0 °C 1000.9 hPa Calm     95 % 0.0 mm
05:11 14.0 °C 13.0 °C 1000.9 hPa Calm     95 % 0.0 mm
05:16 14.0 °C 13.0 °C 1000.9 hPa Calm     95 % 0.0 mm
05:21 14.0 °C 13.0 °C 1000.9 hPa Calm     95 % 0.0 mm
05:26 14.0 °C 13.0 °C 1000.9 hPa Calm   1.8 km/h 95 % 0.0 mm
05:31 13.9 °C 14.0 °C 1000.9 hPa Calm   1.8 km/h 96 % 0.0 mm
05:36 13.8 °C 13.0 °C 1000.9 hPa Calm   1.8 km/h 96 % 0.0 mm
05:41 13.7 °C 13.0 °C 1000.9 hPa Calm   3.2 km/h 95 % 0.0 mm
05:46 13.6 °C 13.0 °C 1000.9 hPa Calm   4.7 km/h 95 % 0.0 mm
05:51 13.5 °C 13.0 °C 1000.9 hPa Calm   4.7 km/h 95 % 0.0 mm
05:56 13.5 °C 13.0 °C 1000.9 hPa Calm   3.2 km/h 95 % 0.0 mm
06:01 13.4 °C 13.0 °C 1000.9 hPa Calm   1.4 km/h 95 % 0.0 mm
06:06 13.3 °C 13.0 °C 1000.9 hPa Calm     95 % 0.0 mm
06:11 13.3 °C 13.0 °C 1000.9 hPa Calm   4.3 km/h 95 % 0.0 mm
06:16 13.2 °C 13.0 °C 1000.9 hPa Calm   4.3 km/h 95 % 0.0 mm
06:21 13.2 °C 13.0 °C 1000.9 hPa Calm   5.0 km/h 95 % 0.0 mm
06:26 13.2 °C 13.0 °C 1000.9 hPa Calm   5.0 km/h 96 % 0.0 mm
06:31 13.3 °C 13.0 °C 1000.9 hPa Calm     96 % 0.0 mm
06:36 13.3 °C 13.0 °C 1000.9 hPa Calm     96 % 0.0 mm
06:41 13.3 °C 13.0 °C 1000.9 hPa Calm     96 % 0.0 mm
06:46 13.2 °C 13.0 °C 1000.9 hPa Calm     96 % 0.0 mm
06:51 13.4 °C 13.0 °C 1000.9 hPa Calm   5.0 km/h 96 % 0.0 mm
06:56 13.7 °C 13.0 °C 1000.9 hPa Calm   5.0 km/h 97 % 0.0 mm
07:01 14.1 °C 14.0 °C 999.9 hPa Calm   4.0 km/h 97 % 0.0 mm
07:06 14.5 °C 14.0 °C 999.9 hPa SSW 3.2 km/h 5.8 km/h 97 % 0.0 mm
07:11 14.9 °C 15.0 °C 999.9 hPa Calm   5.8 km/h 97 % 0.0 mm
07:16 15.2 °C 15.0 °C 1000.9 hPa Calm   4.0 km/h 97 % 0.0 mm
07:21 15.5 °C 15.0 °C 1000.9 hPa South 2.6 km/h 7.9 km/h 96 % 0.0 mm
07:26 15.7 °C 15.0 °C 1000.9 hPa South 3.2 km/h 8.7 km/h 96 % 0.0 mm
07:31 15.8 °C 15.0 °C 1000.9 hPa SSW 3.5 km/h 11.1 km/h 95 % 0.0 mm
07:36 16.1 °C 15.0 °C 1000.9 hPa Calm   11.1 km/h 94 % 0.0 mm
07:41 15.9 °C 15.0 °C 1000.9 hPa Calm   6.9 km/h 94 % 0.0 mm
07:46 16.0 °C 15.0 °C 1000.9 hPa Calm   6.9 km/h 93 % 0.0 mm
07:51 15.9 °C 15.0 °C 1000.9 hPa WSW 4.7 km/h 6.9 km/h 93 % 0.0 mm
07:56 16.0 °C 15.0 °C 1000.9 hPa South 8.7 km/h 8.7 km/h 93 % 0.0 mm
07:59 16.0 °C 15.0 °C 1000.9 hPa SSW 5.8 km/h 10.5 km/h 93 % 0.0 mm
08:04 16.3 °C 15.0 °C 1000.9 hPa SW 9.7 km/h 10.5 km/h 93 % 0.0 mm
08:09 16.6 °C 16.0 °C 1000.9 hPa SW 2.6 km/h 10.1 km/h 93 % 0.0 mm
08:14 16.8 °C 16.0 °C 1000.9 hPa Calm   6.9 km/h 93 % 0.0 mm
08:19 17.0 °C 16.0 °C 1001.9 hPa SW 7.9 km/h 9.3 km/h 92 % 0.0 mm
08:24 16.8 °C 15.0 °C 1001.9 hPa SSW 7.9 km/h 12.6 km/h 91 % 0.0 mm
08:29 16.6 °C 15.0 °C 1001.9 hPa SW 12.2 km/h 12.6 km/h 90 % 0.0 mm
08:34 16.5 °C 15.0 °C 1001.9 hPa SW 7.2 km/h 13.7 km/h 89 % 0.0 mm
08:39 16.6 °C 15.0 °C 1001.9 hPa WSW 8.7 km/h 13.7 km/h 90 % 0.0 mm
08:44 16.7 °C 15.0 °C 1001.9 hPa SSW 4.7 km/h 13.7 km/h 89 % 0.0 mm
08:49 16.7 °C 15.0 °C 1001.9 hPa SW 5.0 km/h 13.0 km/h 89 % 0.0 mm
08:54 16.8 °C 15.0 °C 1001.9 hPa Calm   11.6 km/h 89 % 0.0 mm
08:59 16.8 °C 15.0 °C 1001.9 hPa SSW 6.4 km/h 10.5 km/h 88 % 0.0 mm
09:04 16.8 °C 15.0 °C 1001.9 hPa SW 5.8 km/h 12.6 km/h 88 % 0.0 mm
09:09 16.8 °C 15.0 °C 1001.9 hPa SW 14.3 km/h 14.3 km/h 88 % 0.0 mm
09:14 16.8 °C 15.0 °C 1001.9 hPa Calm   15.8 km/h 88 % 0.0 mm
09:20 17.0 °C 15.0 °C 1001.9 hPa SSW 2.6 km/h 15.8 km/h 88 % 0.0 mm
09:25 17.0 °C 15.0 °C 1001.9 hPa SW 10.1 km/h 14.0 km/h 87 % 0.0 mm
09:28 17.0 °C 15.0 °C 1001.9 hPa West 7.6 km/h 14.0 km/h 86 % 0.0 mm
09:33 17.3 °C 15.0 °C 1001.9 hPa SW 8.7 km/h 15.4 km/h 86 % 0.0 mm
09:38 17.4 °C 15.0 °C 1001.9 hPa SSW 13.7 km/h 17.7 km/h 85 % 0.0 mm
09:43 17.5 °C 15.0 °C 1001.9 hPa WSW 11.9 km/h 17.7 km/h 84 % 0.0 mm
09:48 17.7 °C 15.0 °C 1001.9 hPa SW 14.0 km/h 16.6 km/h 83 % 0.0 mm
09:53 17.7 °C 15.0 °C 1001.9 hPa SSW 9.7 km/h 14.0 km/h 83 % 0.0 mm
09:58 17.8 °C 15.0 °C 1001.9 hPa SW 7.9 km/h 18.0 km/h 82 % 0.0 mm
10:03 18.0 °C 15.0 °C 1002.9 hPa WSW 9.3 km/h 18.0 km/h 81 % 0.0 mm
10:08 18.0 °C 15.0 °C 1002.9 hPa SW 11.9 km/h 16.6 km/h 80 % 0.0 mm
10:13 18.0 °C 15.0 °C 1002.9 hPa South 9.7 km/h 16.6 km/h 80 % 0.0 mm
10:18 18.0 °C 14.0 °C 1002.9 hPa West 10.1 km/h 13.7 km/h 79 % 0.0 mm
10:23 18.3 °C 15.0 °C 1002.9 hPa Calm   13.7 km/h 80 % 0.0 mm
10:28 18.5 °C 15.0 °C 1002.9 hPa SW 8.7 km/h 12.6 km/h 80 % 0.0 mm
10:33 18.6 °C 15.0 °C 1002.9 hPa SSW 5.5 km/h 12.2 km/h 79 % 0.0 mm
10:38 18.6 °C 15.0 °C 1002.9 hPa WSW 9.0 km/h 13.7 km/h 78 % 0.0 mm
10:43 18.6 °C 15.0 °C 1002.9 hPa SW 6.9 km/h 13.7 km/h 78 % 0.0 mm
10:48 18.6 °C 15.0 °C 1002.9 hPa WSW 7.9 km/h 12.2 km/h 78 % 0.0 mm
10:53 18.9 °C 15.0 °C 1002.9 hPa South 9.0 km/h 12.2 km/h 78 % 0.0 mm
10:58 19.1 °C 15.0 °C 1002.9 hPa SW 4.3 km/h 12.2 km/h 77 % 0.0 mm
11:03 19.2 °C 15.0 °C 1002.9 hPa WSW 5.0 km/h 12.2 km/h 76 % 0.0 mm
11:08 19.3 °C 15.0 °C 1002.9 hPa WSW 6.9 km/h 12.2 km/h 75 % 0.0 mm
11:13 19.5 °C 15.0 °C 1002.9 hPa WSW 8.7 km/h 12.6 km/h 74 % 0.0 mm
11:18 19.5 °C 15.0 °C 1002.9 hPa West 12.2 km/h 13.7 km/h 73 % 0.0 mm
11:23 19.8 °C 14.0 °C 1002.9 hPa WSW 5.8 km/h 14.0 km/h 71 % 0.0 mm
11:28 20.0 °C 14.0 °C 1002.9 hPa Calm   14.0 km/h 70 % 0.0 mm
11:33 20.4 °C 15.0 °C 1002.9 hPa SSW 5.0 km/h 12.2 km/h 71 % 0.0 mm
11:38 20.8 °C 15.0 °C 1002.9 hPa West 6.4 km/h 12.2 km/h 70 % 0.0 mm
11:44 21.4 °C 15.0 °C 1002.9 hPa West 4.0 km/h 13.0 km/h 69 % 0.0 mm
11:49 21.1 °C 14.0 °C 1002.9 hPa West 2.6 km/h 13.0 km/h 66 % 0.0 mm
11:50 21.1 °C 14.0 °C 1002.9 hPa Calm   13.0 km/h 66 % 0.0 mm
11:55 20.8 °C 14.0 °C 1002.9 hPa West 12.6 km/h 12.6 km/h 67 % 0.0 mm
12:00 22.0 °C 15.0 °C 1002.9 hPa Calm   14.8 km/h 66 % 0.0 mm
12:05 22.1 °C 15.0 °C 1003.9 hPa SW 6.4 km/h 14.8 km/h 64 % 0.0 mm
12:10 21.5 °C 15.0 °C 1003.9 hPa SSW 11.9 km/h 13.7 km/h 65 % 0.0 mm
12:15 21.4 °C 14.0 °C 1003.9 hPa SW 7.9 km/h 11.9 km/h 63 % 0.0 mm
12:20 21.4 °C 14.0 °C 1001.9 hPa WSW 5.0 km/h 11.9 km/h 62 % 0.0 mm
12:25 21.1 °C 13.0 °C 1001.9 hPa West 5.5 km/h 12.6 km/h 61 % 0.0 mm
12:30 21.5 °C 14.0 °C 1001.9 hPa WSW 9.0 km/h 12.6 km/h 63 % 0.0 mm
12:35 21.5 °C 14.0 °C 1002.9 hPa SSW 1.8 km/h 10.5 km/h 63 % 0.0 mm
12:40 21.6 °C 14.0 °C 1002.9 hPa WSW 7.9 km/h 10.5 km/h 63 % 0.0 mm
12:45 21.6 °C 14.0 °C 1002.9 hPa Calm   9.3 km/h 62 % 0.0 mm
12:50 21.5 °C 14.0 °C 1001.9 hPa SW 5.0 km/h 10.5 km/h 62 % 0.0 mm
12:55 21.5 °C 14.0 °C 1001.9 hPa Calm   10.5 km/h 62 % 0.0 mm
13:00 21.7 °C 14.0 °C 1001.9 hPa South 6.1 km/h 10.1 km/h 60 % 0.0 mm
13:05 21.8 °C 14.0 °C 1002.9 hPa SSW 3.2 km/h 11.6 km/h 60 % 0.0 mm
13:10 21.9 °C 13.0 °C 1002.9 hPa SW 9.0 km/h 11.6 km/h 57 % 0.0 mm
13:15 22.1 °C 13.0 °C 1002.9 hPa SSW 5.5 km/h 9.7 km/h 57 % 0.0 mm
13:20 23.5 °C 14.0 °C 1002.9 hPa WSW 6.4 km/h 12.6 km/h 56 % 0.0 mm
13:25 23.2 °C 13.0 °C 1002.9 hPa SW 11.9 km/h 12.6 km/h 51 % 0.0 mm
13:30 22.8 °C 13.0 °C 1002.9 hPa SSW 8.7 km/h 11.9 km/h 52 % 0.0 mm
13:35 22.4 °C 12.0 °C 1001.9 hPa WSW 10.5 km/h 13.0 km/h 50 % 0.0 mm
13:40 22.4 °C 12.0 °C 1001.9 hPa SSW 6.4 km/h 13.0 km/h 52 % 0.0 mm
13:45 22.3 °C 12.0 °C 1001.9 hPa WSW 7.9 km/h 12.2 km/h 51 % 0.0 mm
13:50 22.3 °C 12.0 °C 1002.9 hPa West 1.4 km/h 12.2 km/h 52 % 0.0 mm
13:55 22.3 °C 12.0 °C 1002.9 hPa West 1.8 km/h 11.9 km/h 51 % 0.0 mm
14:00 22.5 °C 12.0 °C 1002.9 hPa SSW 4.7 km/h 10.5 km/h 51 % 0.0 mm
14:05 22.5 °C 13.0 °C 1002.9 hPa West 9.7 km/h 16.6 km/h 54 % 0.0 mm
14:10 22.4 °C 13.0 °C 1002.9 hPa NW 5.5 km/h 16.6 km/h 55 % 0.0 mm
14:15 22.4 °C 13.0 °C 1002.9 hPa West 4.0 km/h 10.1 km/h 55 % 0.0 mm
14:20 22.5 °C 13.0 °C 1001.9 hPa NW 2.6 km/h 9.7 km/h 54 % 0.0 mm
14:25 22.5 °C 13.0 °C 1001.9 hPa West 6.1 km/h 9.3 km/h 54 % 0.0 mm
14:30 22.6 °C 13.0 °C 1001.9 hPa NNW 6.9 km/h 9.3 km/h 54 % 0.0 mm
14:35 22.8 °C 13.0 °C 1002.9 hPa NW 9.0 km/h 9.0 km/h 56 % 0.0 mm
14:40 22.7 °C 13.0 °C 1002.9 hPa NNW 2.6 km/h 9.0 km/h 55 % 0.0 mm
14:45 22.5 °C 13.0 °C 1002.9 hPa North 4.0 km/h 9.3 km/h 55 % 0.0 mm
14:50 22.3 °C 13.0 °C 1002.9 hPa Calm   9.3 km/h 55 % 0.0 mm
14:55 22.2 °C 13.0 °C 1002.9 hPa NNW 2.1 km/h 8.7 km/h 54 % 0.0 mm
15:00 22.2 °C 13.0 °C 1002.9 hPa NE 4.7 km/h 8.7 km/h 53 % 0.0 mm
15:05 22.1 °C 13.0 °C 1002.9 hPa Calm   9.0 km/h 54 % 0.0 mm
15:11 22.1 °C 13.0 °C 1002.9 hPa Calm   9.0 km/h 54 % 0.0 mm
15:16 22.0 °C 13.0 °C 1002.9 hPa East 6.1 km/h 9.3 km/h 54 % 0.0 mm
15:21 21.9 °C 13.0 °C 1002.9 hPa Calm   9.3 km/h 55 % 0.0 mm
15:26 21.8 °C 12.0 °C 1002.9 hPa East 4.3 km/h 6.4 km/h 55 % 0.0 mm
15:31 21.7 °C 12.0 °C 1002.9 hPa Calm   5.8 km/h 55 % 0.0 mm
15:36 21.7 °C 12.0 °C 1002.9 hPa Calm   6.4 km/h 55 % 0.0 mm
15:41 21.6 °C 13.0 °C 1002.9 hPa Calm   6.4 km/h 56 % 0.0 mm
15:46 21.6 °C 13.0 °C 1002.9 hPa Calm   5.0 km/h 56 % 0.0 mm
15:51 21.6 °C 12.0 °C 1002.9 hPa NE 7.6 km/h 7.6 km/h 55 % 0.0 mm
15:56 21.5 °C 13.0 °C 1002.9 hPa NNW 5.8 km/h 8.7 km/h 56 % 0.0 mm
16:01 21.5 °C 13.0 °C 1002.9 hPa Calm   9.3 km/h 56 % 0.0 mm
16:06 21.6 °C 13.0 °C 1002.9 hPa Calm   9.3 km/h 57 % 0.0 mm
16:11 21.6 °C 13.0 °C 1002.9 hPa Calm   4.7 km/h 58 % 0.0 mm
16:16 21.6 °C 13.0 °C 1003.9 hPa NNW 5.8 km/h 7.6 km/h 58 % 0.0 mm
16:21 21.6 °C 13.0 °C 1003.9 hPa North 5.8 km/h 7.6 km/h 59 % 0.0 mm
16:27 21.7 °C 13.0 °C 1003.9 hPa NW 6.9 km/h 6.9 km/h 58 % 0.0 mm
16:32 21.7 °C 13.0 °C 1003.9 hPa Calm   6.9 km/h 58 % 0.0 mm
16:37 21.8 °C 13.0 °C 1003.9 hPa Calm   9.0 km/h 58 % 0.0 mm
16:42 21.9 °C 13.0 °C 1003.9 hPa WNW 4.3 km/h 9.0 km/h 58 % 0.0 mm
16:47 21.8 °C 13.0 °C 1003.9 hPa North 5.0 km/h 7.9 km/h 57 % 0.0 mm
16:52 21.8 °C 13.0 °C 1003.9 hPa NNW 3.2 km/h 6.1 km/h 57 % 0.0 mm
16:57 21.7 °C 13.0 °C 1003.9 hPa Calm   5.0 km/h 57 % 0.0 mm
17:02 21.1 °C 13.0 °C 1005.0 hPa Calm   10.5 km/h 62 % 0.0 mm
17:07 20.7 °C 13.0 °C 1005.0 hPa NNW 11.6 km/h 15.8 km/h 63 % 0.0 mm
17:12 20.6 °C 13.0 °C 1005.0 hPa North 6.4 km/h 15.8 km/h 63 % 0.0 mm
17:17 20.4 °C 14.0 °C 1005.0 hPa North 8.7 km/h 13.7 km/h 65 % 0.0 mm
17:22 20.0 °C 14.0 °C 1005.0 hPa NW 6.9 km/h 13.7 km/h 67 % 0.0 mm
17:27 20.0 °C 14.0 °C 1005.0 hPa Calm   13.0 km/h 68 % 0.0 mm
17:32 19.9 °C 14.0 °C 1005.0 hPa North 2.1 km/h 10.5 km/h 70 % 0.0 mm
17:37 19.8 °C 14.0 °C 1005.0 hPa North 2.1 km/h 10.1 km/h 71 % 0.0 mm
17:42 19.6 °C 14.0 °C 1005.0 hPa NW 10.5 km/h 10.5 km/h 70 % 0.0 mm
17:47 19.6 °C 14.0 °C 1005.0 hPa NNW 4.0 km/h 10.5 km/h 70 % 0.0 mm
17:52 19.5 °C 14.0 °C 1005.0 hPa North 2.1 km/h 10.5 km/h 69 % 0.0 mm
17:57 19.5 °C 14.0 °C 1005.0 hPa Calm   9.0 km/h 69 % 0.0 mm
18:02 19.5 °C 14.0 °C 1005.0 hPa NNE 6.9 km/h 9.0 km/h 69 % 0.0 mm
18:08 19.5 °C 14.0 °C 1005.0 hPa North 8.7 km/h 9.0 km/h 69 % 0.0 mm
18:13 19.6 °C 14.0 °C 1005.0 hPa North 9.0 km/h 9.0 km/h 69 % 0.0 mm
18:18 19.6 °C 14.0 °C 1005.0 hPa NNW 5.8 km/h 9.0 km/h 69 % 0.0 mm
18:23 19.7 °C 14.0 °C 1005.0 hPa NNW 6.1 km/h 9.0 km/h 69 % 0.0 mm
18:28 19.8 °C 14.0 °C 1005.0 hPa North 4.7 km/h 9.3 km/h 69 % 0.0 mm
18:33 19.9 °C 14.0 °C 1005.0 hPa NNW 6.9 km/h 9.3 km/h 69 % 0.0 mm
18:38 20.0 °C 14.0 °C 1005.0 hPa NNW 9.0 km/h 12.6 km/h 69 % 0.0 mm
18:43 20.1 °C 14.0 °C 1005.0 hPa North 7.9 km/h 12.6 km/h 69 % 0.0 mm
18:48 20.2 °C 14.0 °C 1005.0 hPa North 2.6 km/h 10.1 km/h 69 % 0.0 mm
18:53 20.3 °C 14.0 °C 1005.0 hPa NNW 5.8 km/h 10.1 km/h 69 % 0.0 mm
18:58 20.3 °C 15.0 °C 1005.0 hPa Calm   10.1 km/h 70 % 0.0 mm
19:03 20.3 °C 14.0 °C 1005.0 hPa NE 5.5 km/h 8.7 km/h 69 % 0.0 mm
19:08 20.3 °C 15.0 °C 1005.0 hPa NNW 5.8 km/h 9.3 km/h 70 % 0.0 mm
19:13 20.3 °C 14.0 °C 1005.0 hPa NNW 7.2 km/h 9.3 km/h 69 % 0.0 mm
19:18 20.3 °C 14.0 °C 1005.0 hPa North 9.3 km/h 9.7 km/h 67 % 0.0 mm
19:23 20.3 °C 14.0 °C 1005.0 hPa ENE 6.1 km/h 11.9 km/h 67 % 0.0 mm
19:28 20.3 °C 14.0 °C 1005.0 hPa NE 5.0 km/h 11.9 km/h 66 % 0.0 mm
19:33 20.3 °C 13.0 °C 1005.0 hPa NE 9.0 km/h 10.5 km/h 64 % 0.0 mm
19:38 20.3 °C 13.0 °C 1005.0 hPa North 7.9 km/h 14.0 km/h 64 % 0.0 mm
19:43 20.3 °C 13.0 °C 1005.0 hPa NNW 1.8 km/h 14.0 km/h 64 % 0.0 mm
19:48 20.3 °C 13.0 °C 1005.0 hPa North 12.2 km/h 13.0 km/h 63 % 0.0 mm
19:54 20.3 °C 13.0 °C 1005.0 hPa North 9.7 km/h 13.0 km/h 63 % 0.0 mm
19:59 20.3 °C 13.0 °C 1005.0 hPa North 5.0 km/h 13.0 km/h 63 % 0.0 mm
20:04 20.3 °C 13.0 °C 1006.0 hPa North 5.5 km/h 10.1 km/h 62 % 0.0 mm
20:09 20.3 °C 13.0 °C 1006.0 hPa WNW 6.4 km/h 9.7 km/h 61 % 0.0 mm
20:14 20.3 °C 13.0 °C 1006.0 hPa North 9.0 km/h 9.7 km/h 62 % 0.0 mm
20:19 20.2 °C 13.0 °C 1005.0 hPa Calm   9.3 km/h 62 % 0.0 mm
20:22 20.1 °C 13.0 °C 1005.0 hPa North 4.0 km/h 9.3 km/h 62 % 0.0 mm
20:27 20.0 °C 13.0 °C 1005.0 hPa North 2.6 km/h 12.2 km/h 62 % 0.0 mm
20:32 19.9 °C 13.0 °C 1006.0 hPa North 4.7 km/h 12.2 km/h 63 % 0.0 mm
20:37 19.9 °C 13.0 °C 1006.0 hPa Calm   8.7 km/h 62 % 0.0 mm
20:42 19.8 °C 13.0 °C 1006.0 hPa NNW 6.4 km/h 8.7 km/h 63 % 0.0 mm
20:47 19.6 °C 13.0 °C 1006.0 hPa North 4.3 km/h 9.7 km/h 63 % 0.0 mm
20:52 19.5 °C 13.0 °C 1006.0 hPa Calm   9.7 km/h 64 % 0.0 mm
20:57 19.3 °C 13.0 °C 1006.0 hPa NW 2.1 km/h 5.0 km/h 65 % 0.0 mm
21:00 19.3 °C 13.0 °C 1006.0 hPa NNW 3.5 km/h 7.6 km/h 65 % 0.0 mm
21:05 19.1 °C 13.0 °C 1007.0 hPa NW 5.8 km/h 7.6 km/h 66 % 0.0 mm
21:10 19.0 °C 13.0 °C 1007.0 hPa NNW 5.5 km/h 7.9 km/h 66 % 0.0 mm
21:15 18.8 °C 13.0 °C 1007.0 hPa NNW 4.0 km/h 8.7 km/h 67 % 0.0 mm
21:20 18.7 °C 13.0 °C 1007.0 hPa Calm   8.7 km/h 67 % 0.0 mm
21:25 18.6 °C 13.0 °C 1007.0 hPa WNW 1.8 km/h 7.9 km/h 67 % 0.0 mm
21:30 18.5 °C 13.0 °C 1007.0 hPa Calm   7.6 km/h 67 % 0.0 mm
21:35 18.4 °C 12.0 °C 1007.0 hPa West 2.6 km/h 7.6 km/h 67 % 0.0 mm
21:40 18.2 °C 13.0 °C 1007.0 hPa Calm   4.0 km/h 68 % 0.0 mm
21:45 18.1 °C 12.0 °C 1007.0 hPa Calm   2.6 km/h 69 % 0.0 mm
21:50 18.0 °C 12.0 °C 1007.0 hPa Calm     69 % 0.0 mm
21:55 17.8 °C 12.0 °C 1007.0 hPa Calm     70 % 0.0 mm
22:00 17.7 °C 13.0 °C 1007.0 hPa Calm     71 % 0.0 mm
22:05 17.5 °C 13.0 °C 1007.0 hPa Calm     71 % 0.0 mm
22:10 17.3 °C 12.0 °C 1007.0 hPa Calm     71 % 0.0 mm
22:16 17.2 °C 13.0 °C 1007.0 hPa Calm     72 % 0.0 mm
22:21 17.0 °C 12.0 °C 1007.0 hPa Calm     72 % 0.0 mm
22:26 16.8 °C 12.0 °C 1007.0 hPa Calm     73 % 0.0 mm
22:31 16.6 °C 12.0 °C 1007.0 hPa Calm     74 % 0.0 mm
22:36 16.5 °C 12.0 °C 1007.0 hPa Calm     74 % 0.0 mm
22:41 16.5 °C 13.0 °C 1007.0 hPa Calm   3.5 km/h 75 % 0.0 mm
22:46 16.3 °C 12.0 °C 1007.0 hPa Calm   3.5 km/h 75 % 0.0 mm
22:51 16.0 °C 12.0 °C 1007.0 hPa Calm     76 % 0.0 mm
22:56 15.9 °C 12.0 °C 1007.0 hPa Calm   3.5 km/h 77 % 0.0 mm
22:59 15.8 °C 12.0 °C 1007.0 hPa Calm   3.5 km/h 77 % 0.0 mm
23:04 15.6 °C 12.0 °C 1007.0 hPa Calm     78 % 0.0 mm
23:09 15.5 °C 12.0 °C 1007.0 hPa Calm   2.1 km/h 79 % 0.0 mm
23:14 15.5 °C 13.0 °C 1007.0 hPa Calm   2.1 km/h 80 % 0.0 mm
23:19 15.4 °C 12.0 °C 1008.0 hPa Calm     80 % 0.0 mm
23:24 15.3 °C 12.0 °C 1008.0 hPa Calm     80 % 0.0 mm
23:29 15.1 °C 12.0 °C 1008.0 hPa Calm     81 % 0.0 mm
23:35 15.0 °C 12.0 °C 1007.0 hPa Calm     81 % 0.0 mm
23:40 15.0 °C 12.0 °C 1007.0 hPa WSW 1.4 km/h 2.6 km/h 82 % 0.0 mm
23:45 14.9 °C 12.0 °C 1007.0 hPa Calm   2.6 km/h 82 % 0.0 mm
23:50 14.7 °C 12.0 °C 1007.0 hPa Calm   1.8 km/h 83 % 0.0 mm
23:55 14.7 °C 12.0 °C 1007.0 hPa Calm   1.8 km/h 83 % 0.0 mm
Le Gheer Warneton
Courtoisie de Weather Underground - 2.25 mb

Mise a jour : 18/12/2017 21:33:12
Généré par Cumulus 1.9.4 (1099)